VOE6FN LFST-LFMN

Flight info

Callsign VOE6FN
Flight time 1h 8m
Altitude 35000
Route LUPEN Y711 NATOR DCT TRA DCT RIPUS DCT GERSA DCT SOSON DCT ODINA DCT ENOBA Z185 BORDI
Aircraft A320/M-SDE3FGHIRWY/LB1

Departure

Time 2026-05-07 20:28
Airport Strasbourg Airport (LFST)

Arrival

Time 2026-05-07 21:37
Airport Nice-Côte d'Azur Airport (LFMN)
Time Latitude Longitude Altitude Speed Heading
2026-05-07 20:12 48.54366 7.62795 504 ft 0 kts
2026-05-07 20:20 48.54359 7.62795 504 ft 2 kts 357°
2026-05-07 20:20 48.54345 7.62795 504 ft 2 kts
2026-05-07 20:21 48.54329 7.62794 504 ft 2 kts
2026-05-07 20:21 48.54314 7.62794 504 ft 2 kts 16°
2026-05-07 20:21 48.54300 7.62784 504 ft 2 kts 34°
2026-05-07 20:21 48.54290 7.62769 504 ft 2 kts 54°
2026-05-07 20:22 48.54282 7.62750 504 ft 1 kts 72°
2026-05-07 20:22 48.54281 7.62742 504 ft 0 kts 78°
2026-05-07 20:23 48.54281 7.62743 504 ft 0 kts 78°
2026-05-07 20:24 48.54282 7.62749 504 ft 1 kts 78°
2026-05-07 20:24 48.54283 7.62781 504 ft 4 kts 102°
2026-05-07 20:24 48.54253 7.62832 504 ft 8 kts 140°
2026-05-07 20:24 48.54207 7.62893 504 ft 9 kts 139°
2026-05-07 20:25 48.54169 7.62983 504 ft 11 kts 88°
2026-05-07 20:25 48.54213 7.63085 503 ft 12 kts 49°
2026-05-07 20:25 48.54275 7.63188 503 ft 13 kts 47°
2026-05-07 20:25 48.54341 7.63302 503 ft 14 kts 49°
2026-05-07 20:26 48.54411 7.63421 502 ft 15 kts 49°
2026-05-07 20:26 48.54487 7.63551 502 ft 16 kts 49°
2026-05-07 20:26 48.54566 7.63687 501 ft 17 kts 49°
2026-05-07 20:26 48.54631 7.63804 500 ft 12 kts 58°
2026-05-07 20:27 48.54627 7.63914 500 ft 11 kts 132°
2026-05-07 20:27 48.54563 7.63991 500 ft 11 kts 158°
2026-05-07 20:27 48.54489 7.63950 500 ft 15 kts 229°
2026-05-07 20:27 48.54289 7.63606 502 ft 80 kts 229°
2026-05-07 20:28 48.53763 7.62705 506 ft 146 kts 229°
2026-05-07 20:28 48.52999 7.61410 800 ft 174 kts 228°
2026-05-07 20:28 48.52220 7.60083 1554 ft 171 kts 228°
2026-05-07 20:28 48.51434 7.58728 2293 ft 173 kts 229°
2026-05-07 20:29 48.50647 7.57361 2945 ft 180 kts 229°
2026-05-07 20:29 48.49809 7.55888 3536 ft 191 kts 229°
2026-05-07 20:29 48.48941 7.54343 4212 ft 198 kts 230°
2026-05-07 20:29 48.48025 7.52723 4834 ft 208 kts 228°
2026-05-07 20:30 48.47020 7.51090 5375 ft 224 kts 224°
2026-05-07 20:30 48.45619 7.49905 5891 ft 241 kts 191°
2026-05-07 20:30 48.43939 7.50051 6527 ft 254 kts 162°
2026-05-07 20:30 48.42416 7.51558 7057 ft 274 kts 131°
2026-05-07 20:31 48.41562 7.54111 7817 ft 282 kts 102°
2026-05-07 20:31 48.41638 7.57081 8656 ft 287 kts 77°
2026-05-07 20:31 48.42102 7.60000 9442 ft 292 kts 84°
2026-05-07 20:31 48.41984 7.63024 10197 ft 295 kts 105°
2026-05-07 20:32 48.41272 7.65953 10816 ft 305 kts 120°
2026-05-07 20:32 48.40063 7.68672 11237 ft 320 kts 129°
2026-05-07 20:32 48.38732 7.71502 11608 ft 339 kts 125°
2026-05-07 20:32 48.37469 7.74545 12032 ft 353 kts 122°
2026-05-07 20:33 48.36213 7.77755 12718 ft 358 kts 121°
2026-05-07 20:33 48.34979 7.81082 13457 ft 361 kts 120°
2026-05-07 20:33 48.33791 7.84409 14141 ft 365 kts 120°
2026-05-07 20:33 48.32397 7.87557 14751 ft 367 kts 136°
2026-05-07 20:34 48.30353 7.89845 15389 ft 367 kts 151°
2026-05-07 20:34 48.28098 7.91768 16012 ft 371 kts 153°
2026-05-07 20:34 48.25853 7.93694 16604 ft 375 kts 151°
2026-05-07 20:34 48.23614 7.95728 17190 ft 379 kts 150°
2026-05-07 20:35 48.21389 7.97840 17758 ft 383 kts 149°
2026-05-07 20:35 48.19130 8.00027 18315 ft 387 kts 149°
2026-05-07 20:35 48.16856 8.02190 18866 ft 390 kts 150°
2026-05-07 20:35 48.14500 8.04257 19420 ft 392 kts 152°
2026-05-07 20:36 48.12139 8.06285 19958 ft 395 kts 152°
2026-05-07 20:36 48.09726 8.08366 20494 ft 398 kts 152°
2026-05-07 20:36 48.07337 8.10437 21011 ft 401 kts 151°
2026-05-07 20:36 48.04932 8.12532 21516 ft 404 kts 151°
2026-05-07 20:37 48.02489 8.14662 22017 ft 407 kts 151°
2026-05-07 20:37 48.00037 8.16798 22508 ft 410 kts 151°
2026-05-07 20:37 47.97589 8.18929 22976 ft 412 kts 151°
2026-05-07 20:37 47.95081 8.21111 23442 ft 415 kts 151°
2026-05-07 20:38 47.92570 8.23292 23896 ft 418 kts 151°
2026-05-07 20:38 47.90065 8.25469 24319 ft 421 kts 151°
2026-05-07 20:38 47.87521 8.27675 24730 ft 424 kts 151°
2026-05-07 20:38 47.84980 8.29877 25127 ft 427 kts 152°
2026-05-07 20:39 47.82392 8.32117 25512 ft 430 kts 152°
2026-05-07 20:39 47.79818 8.34341 25872 ft 433 kts 152°
2026-05-07 20:39 47.77203 8.36597 26226 ft 436 kts 152°
2026-05-07 20:39 47.74577 8.38859 26562 ft 439 kts 152°
2026-05-07 20:40 47.71933 8.41092 26890 ft 441 kts 155°
2026-05-07 20:40 47.69088 8.42898 27215 ft 441 kts 163°
2026-05-07 20:40 47.66135 8.44055 27540 ft 440 kts 172°
2026-05-07 20:40 47.63113 8.44647 27867 ft 441 kts 176°
2026-05-07 20:41 47.60063 8.45092 28187 ft 442 kts 177°
2026-05-07 20:41 47.56978 8.45519 28493 ft 445 kts 177°
2026-05-07 20:41 47.53907 8.45950 28795 ft 447 kts 177°
2026-05-07 20:41 47.50815 8.46390 29098 ft 448 kts 177°
2026-05-07 20:42 47.47701 8.46840 29375 ft 450 kts 177°
2026-05-07 20:42 47.44600 8.47293 29637 ft 452 kts 178°
2026-05-07 20:42 47.41439 8.47757 29891 ft 454 kts 178°
2026-05-07 20:42 47.38294 8.48217 30137 ft 456 kts 178°
2026-05-07 20:43 47.35172 8.48675 30450 ft 455 kts 178°
2026-05-07 20:43 47.32029 8.49138 30797 ft 454 kts 178°
2026-05-07 20:43 47.28888 8.49598 31144 ft 452 kts 178°
2026-05-07 20:43 47.25747 8.50055 31464 ft 451 kts 178°
2026-05-07 20:44 47.22654 8.50506 31772 ft 451 kts 178°
2026-05-07 20:44 47.19548 8.50958 32072 ft 450 kts 178°
2026-05-07 20:44 47.16418 8.51413 32366 ft 450 kts 178°
2026-05-07 20:44 47.13287 8.51867 32646 ft 449 kts 178°
2026-05-07 20:45 47.10191 8.52318 32940 ft 448 kts 179°
2026-05-07 20:45 47.07126 8.52763 33235 ft 447 kts 179°
2026-05-07 20:45 47.04006 8.53215 33491 ft 447 kts 179°
2026-05-07 20:45 47.00907 8.53663 33711 ft 448 kts 179°
2026-05-07 20:46 46.97789 8.54111 33926 ft 449 kts 179°
2026-05-07 20:46 46.94704 8.54553 34132 ft 449 kts 179°
2026-05-07 20:46 46.91585 8.54999 34329 ft 450 kts 179°
2026-05-07 20:46 46.88466 8.55447 34506 ft 451 kts 179°
2026-05-07 20:47 46.85305 8.55902 34681 ft 452 kts 179°
2026-05-07 20:47 46.82173 8.56352 34821 ft 452 kts 179°
2026-05-07 20:47 46.79075 8.56795 34969 ft 453 kts 179°
2026-05-07 20:48 46.72765 8.57698 35044 ft 454 kts 179°
2026-05-07 20:48 46.66495 8.58597 35051 ft 453 kts 179°
2026-05-07 20:49 46.60189 8.59496 35054 ft 452 kts 179°
2026-05-07 20:49 46.53931 8.60380 35066 ft 452 kts 179°
2026-05-07 20:50 46.47702 8.61260 35067 ft 451 kts 179°
2026-05-07 20:50 46.41447 8.62143 35063 ft 452 kts 179°
2026-05-07 20:51 46.35165 8.63030 35066 ft 452 kts 179°
2026-05-07 20:51 46.28930 8.63909 35064 ft 451 kts 179°
2026-05-07 20:52 46.22662 8.64792 35065 ft 451 kts 179°
2026-05-07 20:52 46.16436 8.65654 35060 ft 449 kts 181°
2026-05-07 20:53 46.10224 8.65906 35056 ft 444 kts 187°
2026-05-07 20:53 46.04120 8.65207 35051 ft 439 kts 193°
2026-05-07 20:54 45.98084 8.63963 35047 ft 439 kts 193°
2026-05-07 20:54 45.92028 8.62732 35046 ft 439 kts 194°
2026-05-07 20:55 45.85989 8.61505 35038 ft 438 kts 194°
2026-05-07 20:55 45.79923 8.60274 35036 ft 437 kts 194°
2026-05-07 20:56 45.73920 8.59057 35025 ft 436 kts 194°
2026-05-07 20:56 45.67926 8.57845 35018 ft 435 kts 194°
2026-05-07 20:57 45.61910 8.56635 35014 ft 433 kts 194°
2026-05-07 20:57 45.55925 8.55428 35012 ft 433 kts 194°
2026-05-07 20:58 45.49959 8.54229 35016 ft 432 kts 194°
2026-05-07 20:58 45.44013 8.53035 35010 ft 432 kts 194°
2026-05-07 20:59 45.38026 8.51839 35008 ft 431 kts 194°
2026-05-07 20:59 45.32079 8.50650 35003 ft 431 kts 194°
2026-05-07 21:00 45.26170 8.49475 34996 ft 428 kts 194°
2026-05-07 21:00 45.20238 8.48296 34997 ft 428 kts 194°
2026-05-07 21:01 45.14329 8.47123 34988 ft 427 kts 195°
2026-05-07 21:01 45.08447 8.45959 34981 ft 425 kts 195°
2026-05-07 21:02 45.02548 8.44792 34983 ft 427 kts 195°
2026-05-07 21:02 44.96661 8.43634 34985 ft 424 kts 195°
2026-05-07 21:03 44.90839 8.42486 34996 ft 424 kts 195°
2026-05-07 21:03 44.84989 8.41337 35003 ft 423 kts 195°
2026-05-07 21:04 44.79156 8.40192 35003 ft 423 kts 195°
2026-05-07 21:04 44.73348 8.39057 35005 ft 422 kts 195°
2026-05-07 21:05 44.67523 8.37921 34896 ft 422 kts 194°
2026-05-07 21:05 44.64621 8.37356 34607 ft 419 kts 195°
2026-05-07 21:05 44.61719 8.36795 34074 ft 417 kts 195°
2026-05-07 21:05 44.58872 8.36244 33472 ft 415 kts 195°
2026-05-07 21:06 44.55994 8.35683 32791 ft 416 kts 195°
2026-05-07 21:06 44.53149 8.35130 32082 ft 419 kts 195°
2026-05-07 21:06 44.50233 8.34563 31321 ft 421 kts 194°
2026-05-07 21:06 44.47321 8.34001 30538 ft 421 kts 194°
2026-05-07 21:07 44.44445 8.33443 29789 ft 421 kts 194°
2026-05-07 21:07 44.41569 8.32887 29217 ft 417 kts 194°
2026-05-07 21:07 44.38671 8.32326 28637 ft 413 kts 193°
2026-05-07 21:07 44.35873 8.31786 28069 ft 410 kts 193°
2026-05-07 21:08 44.33057 8.31137 27469 ft 402 kts 200°
2026-05-07 21:08 44.30546 8.29641 26891 ft 391 kts 215°
2026-05-07 21:08 44.28451 8.27282 26291 ft 383 kts 229°
2026-05-07 21:08 44.26842 8.24359 25728 ft 378 kts 236°
2026-05-07 21:09 44.25357 8.21365 25170 ft 376 kts 236°
2026-05-07 21:09 44.23887 8.18389 24627 ft 374 kts 236°
2026-05-07 21:09 44.22414 8.15412 24089 ft 372 kts 236°
2026-05-07 21:09 44.20936 8.12431 23541 ft 370 kts 236°
2026-05-07 21:10 44.19482 8.09505 23014 ft 368 kts 236°
2026-05-07 21:10 44.18033 8.06597 22507 ft 367 kts 236°
2026-05-07 21:10 44.16583 8.03690 21997 ft 365 kts 236°
2026-05-07 21:10 44.15129 8.00779 21474 ft 364 kts 236°
2026-05-07 21:11 44.13692 7.97903 20963 ft 363 kts 236°
2026-05-07 21:11 44.12253 7.95025 20455 ft 362 kts 235°
2026-05-07 21:11 44.09378 7.89282 19448 ft 360 kts 235°
2026-05-07 21:12 44.07956 7.86447 18947 ft 359 kts 235°
2026-05-07 21:12 44.06532 7.83610 18449 ft 358 kts 235°
2026-05-07 21:12 44.05107 7.80778 17951 ft 357 kts 235°
2026-05-07 21:12 44.03690 7.77962 17458 ft 356 kts 235°
2026-05-07 21:13 44.02269 7.75143 16964 ft 356 kts 235°
2026-05-07 21:13 44.00847 7.72316 16857 ft 365 kts 235°
2026-05-07 21:13 43.99379 7.69403 16881 ft 368 kts 235°
2026-05-07 21:13 43.97906 7.66481 16902 ft 369 kts 235°
2026-05-07 21:14 43.96450 7.63596 16928 ft 369 kts 235°
2026-05-07 21:14 43.94975 7.60674 16951 ft 369 kts 235°
2026-05-07 21:14 43.93503 7.57763 16958 ft 369 kts 235°
2026-05-07 21:14 43.92025 7.54842 16973 ft 369 kts 235°
2026-05-07 21:15 43.90546 7.51927 17005 ft 369 kts 235°
2026-05-07 21:15 43.89069 7.49016 17007 ft 369 kts 235°
2026-05-07 21:15 43.87600 7.46127 17014 ft 369 kts 234°
2026-05-07 21:15 43.85835 7.43567 16998 ft 368 kts 215°
2026-05-07 21:16 43.83529 7.42097 17007 ft 369 kts 194°
2026-05-07 21:16 43.80956 7.41859 17007 ft 371 kts 174°
2026-05-07 21:16 43.78500 7.42886 17002 ft 373 kts 154°
2026-05-07 21:16 43.76384 7.44965 17015 ft 375 kts 142°
2026-05-07 21:17 43.74373 7.47267 17004 ft 375 kts 142°
2026-05-07 21:17 43.72363 7.49559 17003 ft 375 kts 142°
2026-05-07 21:17 43.70352 7.51825 17008 ft 375 kts 141°
2026-05-07 21:17 43.68528 7.54386 17005 ft 377 kts 129°
2026-05-07 21:18 43.67148 7.57517 17001 ft 380 kts 116°
2026-05-07 21:18 43.66209 7.60883 17012 ft 381 kts 111°
2026-05-07 21:18 43.65337 7.64357 16997 ft 380 kts 110°
2026-05-07 21:18 43.64484 7.67783 16975 ft 380 kts 110°
2026-05-07 21:19 43.63622 7.71211 16584 ft 382 kts 110°
2026-05-07 21:19 43.62735 7.74696 15964 ft 381 kts 110°
2026-05-07 21:19 43.61861 7.78109 15403 ft 379 kts 110°
2026-05-07 21:19 43.60989 7.81495 14874 ft 377 kts 110°
2026-05-07 21:20 43.60110 7.84904 14344 ft 374 kts 110°
2026-05-07 21:20 43.59243 7.88252 13812 ft 371 kts 110°
2026-05-07 21:20 43.58384 7.91565 13290 ft 368 kts 110°
2026-05-07 21:20 43.57518 7.94895 12765 ft 364 kts 110°
2026-05-07 21:21 43.56673 7.98138 12236 ft 361 kts 110°
2026-05-07 21:21 43.55833 8.01366 11707 ft 357 kts 110°
2026-05-07 21:21 43.54919 8.04499 11168 ft 353 kts 120°
2026-05-07 21:21 43.53299 8.06930 10758 ft 344 kts 147°
2026-05-07 21:22 43.51090 8.07998 10568 ft 329 kts 175°
2026-05-07 21:22 43.48909 8.07607 10391 ft 316 kts 200°
2026-05-07 21:22 43.47062 8.06118 10221 ft 304 kts 220°
2026-05-07 21:22 43.45534 8.04184 10077 ft 292 kts 223°
2026-05-07 21:23 43.44083 8.02325 9831 ft 286 kts 222°
2026-05-07 21:23 43.42599 8.00472 9443 ft 285 kts 221°
2026-05-07 21:23 43.41145 7.98694 9078 ft 283 kts 221°
2026-05-07 21:23 43.39673 7.96913 8712 ft 282 kts 221°
2026-05-07 21:24 43.38366 7.94889 8306 ft 282 kts 243°
2026-05-07 21:24 43.37938 7.92328 7943 ft 281 kts 272°
2026-05-07 21:24 43.38440 7.89773 7580 ft 279 kts 298°
2026-05-07 21:24 43.39411 7.87494 7246 ft 276 kts 301°
2026-05-07 21:25 43.40390 7.85244 6906 ft 275 kts 301°
2026-05-07 21:25 43.41269 7.82928 6546 ft 274 kts 291°
2026-05-07 21:25 43.41703 7.80394 6225 ft 272 kts 276°
2026-05-07 21:25 43.41845 7.77813 5808 ft 274 kts 274°
2026-05-07 21:26 43.41949 7.75191 5339 ft 277 kts 274°
2026-05-07 21:26 43.42046 7.72547 4867 ft 280 kts 273°
2026-05-07 21:26 43.42141 7.69891 4492 ft 278 kts 273°
2026-05-07 21:26 43.42235 7.67255 4242 ft 271 kts 273°
2026-05-07 21:27 43.42323 7.64723 4015 ft 265 kts 274°
2026-05-07 21:27 43.42406 7.62260 3970 ft 251 kts 273°
2026-05-07 21:27 43.42486 7.59865 3971 ft 248 kts 274°
2026-05-07 21:27 43.42574 7.57502 3971 ft 248 kts 277°
2026-05-07 21:28 43.42928 7.55193 3970 ft 247 kts 287°
2026-05-07 21:28 43.43430 7.52970 3971 ft 247 kts 289°
2026-05-07 21:28 43.43949 7.50720 3972 ft 246 kts 288°
2026-05-07 21:28 43.44452 7.48454 3970 ft 246 kts 288°
2026-05-07 21:29 43.44935 7.46198 3972 ft 246 kts 287°
2026-05-07 21:29 43.45409 7.43927 3973 ft 246 kts 287°
2026-05-07 21:29 43.45874 7.41667 3972 ft 246 kts 287°
2026-05-07 21:29 43.46335 7.39405 3971 ft 246 kts 287°
2026-05-07 21:30 43.46797 7.37127 3971 ft 247 kts 287°
2026-05-07 21:30 43.47254 7.34868 3975 ft 247 kts 286°
2026-05-07 21:30 43.47718 7.32562 3979 ft 247 kts 286°
2026-05-07 21:30 43.48179 7.30279 3981 ft 247 kts 286°
2026-05-07 21:31 43.48633 7.28017 3989 ft 247 kts 286°
2026-05-07 21:31 43.49089 7.25744 3938 ft 247 kts 286°
2026-05-07 21:31 43.49545 7.23473 3737 ft 242 kts 286°
2026-05-07 21:31 43.49987 7.21264 3540 ft 236 kts 286°
2026-05-07 21:32 43.50419 7.19107 3337 ft 231 kts 286°
2026-05-07 21:32 43.50834 7.17031 3126 ft 226 kts 287°
2026-05-07 21:32 43.51493 7.15121 2862 ft 216 kts 317°
2026-05-07 21:32 43.52767 7.14292 2613 ft 202 kts
2026-05-07 21:33 43.54106 7.14641 2424 ft 191 kts 14°
2026-05-07 21:33 43.55358 7.14978 2273 ft 174 kts
2026-05-07 21:33 43.56530 7.14972 2065 ft 161 kts 357°
2026-05-07 21:33 43.57583 7.14866 1921 ft 144 kts 355°
2026-05-07 21:34 43.58558 7.14738 1650 ft 136 kts 355°
2026-05-07 21:34 43.59487 7.14650 1339 ft 131 kts 357°
2026-05-07 21:34 43.60391 7.14592 1193 ft 130 kts
2026-05-07 21:34 43.61256 7.14914 1083 ft 130 kts 28°
2026-05-07 21:35 43.61904 7.15778 986 ft 130 kts 53°
2026-05-07 21:35 43.62466 7.16764 895 ft 130 kts 49°
2026-05-07 21:35 43.63103 7.17657 734 ft 130 kts 42°
2026-05-07 21:35 43.63770 7.18495 575 ft 130 kts 42°
2026-05-07 21:36 43.64417 7.19372 334 ft 130 kts 43°
2026-05-07 21:36 43.65058 7.20242 115 ft 129 kts 43°
2026-05-07 21:36 43.65687 7.21097 25 ft 119 kts 45°
2026-05-07 21:36 43.66157 7.21746 24 ft 71 kts 44°
2026-05-07 21:37 43.66436 7.22128 24 ft 43 kts 44°
2026-05-07 21:37 43.66595 7.22350 24 ft 29 kts 44°
2026-05-07 21:37 43.66681 7.22467 25 ft 10 kts 44°
2026-05-07 21:37 43.66753 7.22477 25 ft 11 kts 330°
2026-05-07 21:38 43.66808 7.22403 25 ft 10 kts 309°
2026-05-07 21:38 43.66797 7.22309 25 ft 11 kts 226°
2026-05-07 21:38 43.66737 7.22224 25 ft 13 kts 225°
2026-05-07 21:38 43.66668 7.22132 25 ft 14 kts 224°
2026-05-07 21:39 43.66596 7.22033 25 ft 15 kts 225°